Location: Mentone
(34.5413°N, 85.5351°W)
Time: 22:52:21
(UTC-06:00)

Vanguard 3 - All Passes

Search period start: 29 January 2015 00:00
Search period end: 08 February 2015 00:00
Orbit: 509 x 3275 km, 33.4° (Epoch: 28 January)

Date Brightness Start Highest point End Pass type
(mag) Time Alt. Az. Time Alt. Az. Time Alt. Az.
29 Jan - 01:05:25 10° W 01:20:21 29° SW 01:30:51 10° S night (unlit)
29 Jan - 14:53:35 10° SSW 15:02:13 31° SE 15:15:42 10° E daylight
29 Jan - 17:02:58 10° SW 17:15:45 68° SSE 17:35:13 10° E visible
29 Jan - 19:15:57 10° W 19:32:39 87° S 19:52:55 10° E visible
29 Jan - 21:31:09 10° W 21:50:38 76° SSW 22:08:29 10° ESE visible
29 Jan - 23:48:29 10° WNW 00:06:41 44° SW 00:20:17 10° SSE visible
30 Jan - 02:13:39 10° WSW 02:19:56 12° SW 02:23:50 10° SW night (unlit)
30 Jan - 13:45:07 10° SSE 13:49:56 15° SE 13:57:04 10° E daylight
30 Jan - 15:51:20 10° SW 16:01:52 52° SSE 16:19:00 10° ENE daylight
30 Jan - 18:02:49 10° WSW 18:17:11 83° S 18:37:30 10° E visible
30 Jan - 20:16:53 10° W 20:34:55 84° S 20:54:30 10° ESE visible
30 Jan - 22:32:50 10° WNW 22:52:12 59° SSW 23:08:22 10° SE visible
31 Jan - 00:52:27 10° W 01:06:46 25° SW 01:17:13 10° S visible
31 Jan - 14:40:41 10° SSW 14:48:57 34° SE 15:02:19 10° E daylight
31 Jan - 16:50:26 10° WSW 17:02:26 73° SSE 17:21:35 10° E daylight
31 Jan - 19:03:16 10° W 19:19:11 87° S 19:39:36 10° E visible
31 Jan - 21:18:04 10° W 21:36:58 72° SSW 21:55:21 10° ESE visible
31 Jan - 23:35:15 10° W 23:52:58 39° SW 00:06:54 10° SSE visible
01 Feb - 13:31:36 10° SSE 13:36:48 18° SE 13:44:32 10° E daylight
01 Feb - 15:38:46 10° SW 15:48:37 57° SSE 16:05:21 10° ENE daylight
01 Feb - 17:50:18 10° WSW 18:03:51 85° S 18:23:59 10° E visible
01 Feb - 20:04:03 10° W 20:21:21 81° SSW 20:41:15 10° ESE visible
01 Feb - 22:19:39 10° WNW 22:38:26 54° SSW 22:55:04 10° SE visible
02 Feb - 00:39:47 10° W 00:53:10 22° SW 01:03:11 10° S visible
02 Feb - 14:27:57 10° SSW 14:35:46 38° SE 14:48:51 10° E daylight
02 Feb - 16:37:59 10° WSW 16:49:14 76° SSE 17:07:54 10° E daylight
02 Feb - 18:50:39 10° W 19:05:46 86° S 19:26:12 10° E visible
02 Feb - 21:05:04 10° W 21:23:15 67° SSW 21:42:02 10° SE visible
02 Feb - 23:22:12 10° W 23:39:13 35° SW 23:53:16 10° SSE visible
03 Feb - 13:18:26 10° S 13:23:43 20° SE 13:31:43 10° E daylight
03 Feb - 15:26:18 10° SW 15:35:30 61° SSE 15:51:39 10° E daylight
03 Feb - 17:37:52 10° W 17:50:36 86° S 18:10:24 10° E visible
03 Feb - 19:51:16 10° W 20:07:46 78° SSW 20:27:51 10° ESE visible
03 Feb - 22:06:36 10° W 22:24:38 49° SSW 22:41:33 10° SSE visible
04 Feb - 00:27:35 10° W 00:39:35 18° SW 00:48:38 10° SSW visible
04 Feb - 14:15:22 10° SSW 14:22:43 41° SE 14:35:21 10° E daylight
04 Feb - 16:25:37 10° WSW 16:36:08 80° SSE 16:54:12 10° E daylight
04 Feb - 18:38:06 10° W 18:52:22 84° S 19:12:41 10° ESE visible
04 Feb - 20:52:11 10° W 21:09:31 62° SSW 21:28:31 10° SE visible
04 Feb - 23:09:23 10° W 23:25:28 31° SW 23:39:19 10° S visible
05 Feb - 13:05:30 10° S 13:10:43 23° SE 13:18:46 10° E daylight
05 Feb - 15:13:56 10° WSW 15:22:30 66° SSE 15:37:56 10° E daylight
05 Feb - 17:25:28 10° W 17:37:25 86° S 17:56:45 10° E visible
05 Feb - 19:38:34 10° W 19:54:12 73° SSW 20:14:17 10° ESE visible
05 Feb - 21:53:42 10° W 22:10:50 44° SW 22:27:47 10° SSE visible
06 Feb - 00:16:07 10° WSW 00:26:02 15° SW 00:33:16 10° SSW visible
06 Feb - 14:02:54 10° SW 14:09:47 46° SSE 14:21:50 10° E daylight
06 Feb - 16:13:20 10° WSW 16:23:08 82° S 16:40:28 10° E daylight
06 Feb - 18:25:35 10° W 18:39:02 82° S 18:59:03 10° ESE visible
06 Feb - 20:39:22 10° W 20:55:48 57° SSW 21:14:47 10° SE visible
06 Feb - 22:56:51 10° W 23:11:45 26° SW 23:24:59 10° S visible
07 Feb - 12:52:45 10° S 12:57:49 25° SE 13:05:45 10° E daylight
07 Feb - 15:01:40 10° WSW 15:09:38 70° SSE 15:24:15 10° E daylight
07 Feb - 17:13:08 10° W 17:24:19 86° S 17:43:03 10° E visible
07 Feb - 19:25:56 10° W 19:40:40 69° SSW 20:00:34 10° ESE visible
07 Feb - 21:40:58 10° W 21:57:05 38° SW 22:13:43 10° SSE visible
